Location: Taipo
(41.0000°S, 175.9500°E)
Time: 04:04:58
(UTC+00:00)

Cosmos 1766 - Pass Details

Date: 18 April 2024
Orbit: 487 x 504 km, 82.5° (Epoch: 22 May)

Event Time Altitude Azimuth Distance (km) Brightness Sun altitude
Exits shadow 17:49:03 19° 270° (W) 1,248 4.5 -12.3°
Maximum altitude 17:49:47 20° 254° (WSW) 1,211 4.5 -12.1°
Drops below altitude 10° 17:52:41 10° 204° (SSW) 1,742 5.6 -11.6°
Sets 17:55:16 0° 187° (S) 2,643 6.7 -11.1°
